AFR345M CYUL-LFPG

Flight info

Callsign AFR345M
Flight time N/A
Altitude 35000
Route DCT ANTEG DCT OBRON DCT MOBUB DCT EBMOS DCT IMORI DCT KITOP DCT CEFOU DCT NEEKO/M082F350 NATZ GISTI/N0470F350 DCT CRK DCT NORLA DCT PEWBI DCT OXLOW DCT SFD UM605 BIBAX BIBAX9D
Aircraft B77W/H-SDE1E2E3FGHIJ2J3J4J5M1RWXY/LB1D1

Departure

Time 2026-04-30 21:07
Airport Montreal / Pierre Elliott Trudeau International Airport (CYUL)

Arrival

Time N/A
Airport Charles de Gaulle International Airport (LFPG)
Time Latitude Longitude Altitude Speed Heading
2026-04-30 20:47 45.45973 -73.75370 110 ft 0 kts 208°
2026-04-30 20:57 45.45984 -73.75361 109 ft 2 kts 208°
2026-04-30 20:57 45.45999 -73.75350 108 ft 2 kts 208°
2026-04-30 20:58 45.46026 -73.75326 107 ft 2 kts 247°
2026-04-30 20:58 45.46028 -73.75303 106 ft 2 kts 283°
2026-04-30 20:58 45.46023 -73.75281 107 ft 2 kts 291°
2026-04-30 20:58 45.46017 -73.75263 106 ft 2 kts 299°
2026-04-30 20:59 45.46027 -73.75287 108 ft 0 kts 299°
2026-04-30 21:01 45.46040 -73.75321 105 ft 9 kts 299°
2026-04-30 21:01 45.46106 -73.75381 108 ft 13 kts
2026-04-30 21:01 45.46146 -73.75189 106 ft 15 kts 87°
2026-04-30 21:02 45.46153 -73.74966 109 ft 26 kts 88°
2026-04-30 21:02 45.46163 -73.74706 108 ft 26 kts 88°
2026-04-30 21:02 45.46132 -73.74453 108 ft 26 kts 91°
2026-04-30 21:02 45.46137 -73.74193 108 ft 26 kts 85°
2026-04-30 21:03 45.46173 -73.74019 110 ft 15 kts 47°
2026-04-30 21:03 45.46238 -73.73927 110 ft 25 kts 41°
2026-04-30 21:03 45.46459 -73.73638 112 ft 34 kts 43°
2026-04-30 21:03 45.46628 -73.73415 113 ft 32 kts 43°
2026-04-30 21:04 45.46732 -73.73278 114 ft 30 kts 43°
2026-04-30 21:04 45.46887 -73.73079 116 ft 30 kts 42°
2026-04-30 21:04 45.47194 -73.72676 119 ft 30 kts 43°
2026-04-30 21:05 45.47398 -73.72409 120 ft 30 kts 43°
2026-04-30 21:05 45.47501 -73.72274 120 ft 30 kts 43°
2026-04-30 21:05 45.47702 -73.72004 121 ft 30 kts 41°
2026-04-30 21:05 45.47803 -73.71874 123 ft 13 kts 50°
2026-04-30 21:06 45.47805 -73.71848 123 ft 6 kts 89°
2026-04-30 21:06 45.47762 -73.71716 123 ft 19 kts 129°
2026-04-30 21:06 45.47651 -73.71673 126 ft 19 kts 218°
2026-04-30 21:06 45.47529 -73.71832 125 ft 36 kts 223°
2026-04-30 21:07 45.47148 -73.72332 119 ft 112 kts 222°
2026-04-30 21:07 45.46402 -73.73306 114 ft 176 kts 223°
2026-04-30 21:07 45.45449 -73.74579 522 ft 194 kts 228°
2026-04-30 21:07 45.44471 -73.75984 1246 ft 201 kts 229°
2026-04-30 21:08 45.43655 -73.77533 2136 ft 197 kts 252°
2026-04-30 21:08 45.43598 -73.79386 2985 ft 188 kts 288°
2026-04-30 21:08 45.44383 -73.80896 3605 ft 198 kts 327°
2026-04-30 21:08 45.45715 -73.81429 4328 ft 206 kts 354°
2026-04-30 21:09 45.47174 -73.81429 4885 ft 217 kts 359°
2026-04-30 21:09 45.48688 -73.80740 5083 ft 250 kts 31°
2026-04-30 21:09 45.50095 -73.79170 5671 ft 262 kts 36°
2026-04-30 21:09 45.51549 -73.77507 6388 ft 272 kts 35°
2026-04-30 21:10 45.53061 -73.75808 7153 ft 280 kts 35°
2026-04-30 21:10 45.54612 -73.74097 7979 ft 285 kts 35°
2026-04-30 21:10 45.56201 -73.72371 8825 ft 288 kts 35°
2026-04-30 21:10 45.57819 -73.70634 9681 ft 294 kts 35°
2026-04-30 21:11 45.59478 -73.68868 10413 ft 301 kts 36°
2026-04-30 21:11 45.61213 -73.67029 10779 ft 323 kts 36°
2026-04-30 21:11 45.63093 -73.65044 10981 ft 350 kts 36°
2026-04-30 21:11 45.65126 -73.62900 11209 ft 376 kts 36°
2026-04-30 21:12 45.67276 -73.60634 11759 ft 390 kts 37°
2026-04-30 21:12 45.69492 -73.58299 12508 ft 400 kts 37°
2026-04-30 21:12 45.71751 -73.55917 13355 ft 407 kts 37°
2026-04-30 21:12 45.74052 -73.53490 14180 ft 412 kts 38°
2026-04-30 21:13 45.76344 -73.51069 14981 ft 417 kts 38°
2026-04-30 21:13 45.78698 -73.48581 15772 ft 422 kts 38°
2026-04-30 21:13 45.81079 -73.46061 16574 ft 428 kts 38°
2026-04-30 21:13 45.83489 -73.43507 17345 ft 434 kts 39°
2026-04-30 21:14 45.85922 -73.40890 18114 ft 439 kts 41°
2026-04-30 21:14 45.88209 -73.37974 18772 ft 441 kts 49°
2026-04-30 21:14 45.90309 -73.34741 19454 ft 444 kts 51°
2026-04-30 21:14 45.92405 -73.31452 20142 ft 449 kts 51°
2026-04-30 21:15 45.94549 -73.28142 20821 ft 453 kts 51°
2026-04-30 21:15 45.96721 -73.24819 21474 ft 458 kts 51°
2026-04-30 21:15 45.98882 -73.21495 22113 ft 462 kts 51°
2026-04-30 21:15 46.01086 -73.18090 22753 ft 467 kts 51°
2026-04-30 21:16 46.03309 -73.14649 23377 ft 472 kts 51°
2026-04-30 21:16 46.05558 -73.11163 23880 ft 476 kts 51°
2026-04-30 21:16 46.07822 -73.07653 24423 ft 479 kts 51°
2026-04-30 21:16 46.10098 -73.04121 24950 ft 482 kts 51°
2026-04-30 21:17 46.12389 -73.00562 25461 ft 486 kts 52°
2026-04-30 21:17 46.14665 -72.97021 25954 ft 489 kts 52°
2026-04-30 21:17 46.16926 -72.93345 26428 ft 490 kts 55°
2026-04-30 21:17 46.18955 -72.89383 26896 ft 489 kts 62°
2026-04-30 21:18 46.20723 -72.85187 27354 ft 490 kts 64°
2026-04-30 21:18 46.22461 -72.80929 27800 ft 493 kts 64°
2026-04-30 21:18 46.24206 -72.76634 28245 ft 496 kts 64°
2026-04-30 21:18 46.25965 -72.72326 28658 ft 499 kts 64°
2026-04-30 21:19 46.27744 -72.67993 29064 ft 502 kts 64°
2026-04-30 21:19 46.29511 -72.63712 29485 ft 504 kts 64°
2026-04-30 21:19 46.31308 -72.59367 30013 ft 502 kts 64°
2026-04-30 21:19 46.33096 -72.55048 30535 ft 499 kts 64°
2026-04-30 21:20 46.34877 -72.50740 30967 ft 499 kts 64°
2026-04-30 21:20 46.36658 -72.46418 31364 ft 499 kts 64°
2026-04-30 21:20 46.38433 -72.42100 31756 ft 499 kts 64°
2026-04-30 21:20 46.40204 -72.37784 32157 ft 498 kts 64°
2026-04-30 21:21 46.41970 -72.33473 32569 ft 497 kts 64°
2026-04-30 21:21 46.43734 -72.29159 32968 ft 497 kts 64°
2026-04-30 21:21 46.47256 -72.20530 33693 ft 497 kts 63°
2026-04-30 21:22 46.49011 -72.16217 33991 ft 497 kts 63°
2026-04-30 21:22 46.54267 -72.03269 34756 ft 499 kts 63°
2026-04-30 21:23 46.56028 -71.98912 34889 ft 502 kts 63°
2026-04-30 21:23 46.61339 -71.85634 34966 ft 511 kts 63°
2026-04-30 21:24 46.64935 -71.76612 34975 ft 518 kts 63°
2026-04-30 21:24 46.68564 -71.67489 34978 ft 522 kts 63°
2026-04-30 21:25 46.72713 -71.58723 34963 ft 529 kts 52°
2026-04-30 21:25 46.75188 -71.54744 34974 ft 530 kts 50°
2026-04-30 21:26 46.81821 -71.42062 34971 ft 522 kts 64°
2026-04-30 21:27 46.87173 -71.28228 34966 ft 520 kts 64°
2026-04-30 21:27 46.90752 -71.19045 34974 ft 518 kts 64°
2026-04-30 21:28 46.96121 -71.05389 34994 ft 517 kts 64°
2026-04-30 21:29 47.01491 -70.91683 34989 ft 516 kts 64°
2026-04-30 21:30 47.10356 -70.68875 34986 ft 516 kts 65°
2026-04-30 21:31 47.19199 -70.45932 34993 ft 515 kts 65°
2026-04-30 21:32 47.24452 -70.32207 34991 ft 515 kts 65°
2026-04-30 21:32 47.27960 -70.23004 34992 ft 515 kts 65°
2026-04-30 21:33 47.33206 -70.09185 34994 ft 514 kts 65°
2026-04-30 21:34 47.36690 -69.99966 34998 ft 514 kts 65°
2026-04-30 21:34 47.41872 -69.86194 34994 ft 512 kts 66°
2026-04-30 21:35 47.45322 -69.76987 35000 ft 511 kts 66°
2026-04-30 21:35 47.48755 -69.67794 35008 ft 510 kts 66°
2026-04-30 21:36 47.52172 -69.58609 35009 ft 509 kts 66°
2026-04-30 21:37 47.58972 -69.40238 35020 ft 508 kts 67°
2026-04-30 21:37 47.62333 -69.31111 35024 ft 508 kts 67°
2026-04-30 21:38 47.65715 -69.21892 35018 ft 508 kts 67°
2026-04-30 21:38 47.69089 -69.12665 35027 ft 509 kts 67°
2026-04-30 21:39 47.72462 -69.03412 35028 ft 509 kts 67°
2026-04-30 21:39 47.76124 -68.94364 35036 ft 513 kts 62°
2026-04-30 21:40 47.80121 -68.85546 35035 ft 514 kts 61°
2026-04-30 21:40 47.84135 -68.76722 35037 ft 515 kts 61°
2026-04-30 21:41 47.88094 -68.67908 35032 ft 515 kts 61°
2026-04-30 21:41 47.92052 -68.59013 35040 ft 514 kts 61°
2026-04-30 21:42 47.96005 -68.50086 35039 ft 514 kts 61°
2026-04-30 21:42 47.99927 -68.41207 35034 ft 514 kts 61°
2026-04-30 21:43 48.03194 -68.33790 35038 ft 513 kts 61°
2026-04-30 21:43 48.07781 -68.23347 35040 ft 513 kts 61°
2026-04-30 21:44 48.11692 -68.14409 35049 ft 513 kts 61°
2026-04-30 21:44 48.15576 -68.05502 35051 ft 514 kts 61°
2026-04-30 21:45 48.19489 -67.96500 35069 ft 515 kts 61°
2026-04-30 21:45 48.23397 -67.87480 35074 ft 516 kts 61°
2026-04-30 21:46 48.27312 -67.78414 35083 ft 517 kts 61°
2026-04-30 21:46 48.31205 -67.69369 35088 ft 518 kts 61°
2026-04-30 21:47 48.35113 -67.60259 35090 ft 519 kts 61°
2026-04-30 21:47 48.39026 -67.51105 35099 ft 519 kts 61°
2026-04-30 21:48 48.42929 -67.41943 35102 ft 519 kts 60°
2026-04-30 21:48 48.46799 -67.32829 35109 ft 519 kts 60°
2026-04-30 21:49 48.50683 -67.23652 35109 ft 519 kts 60°
2026-04-30 21:49 48.54559 -67.14461 35121 ft 519 kts 60°
2026-04-30 21:50 48.57773 -67.06816 35122 ft 518 kts 60°
2026-04-30 21:50 48.61631 -66.97609 35124 ft 518 kts 60°
2026-04-30 21:51 48.66100 -66.86906 35147 ft 517 kts 60°
2026-04-30 21:51 48.69316 -66.79176 35126 ft 517 kts 60°
2026-04-30 21:52 48.73143 -66.69951 35142 ft 517 kts 60°
2026-04-30 21:52 48.76939 -66.60765 35148 ft 517 kts 60°
2026-04-30 21:53 48.80749 -66.51516 35145 ft 517 kts 60°
2026-04-30 21:53 48.84557 -66.42241 35140 ft 517 kts 60°
2026-04-30 21:54 48.88355 -66.32956 35145 ft 517 kts 60°
2026-04-30 21:54 48.92149 -66.23647 35155 ft 518 kts 60°
2026-04-30 21:55 48.95886 -66.14447 35142 ft 518 kts 60°
2026-04-30 21:55 48.99724 -66.04967 35149 ft 518 kts 60°
2026-04-30 21:56 49.03476 -65.95668 35155 ft 518 kts 60°
2026-04-30 21:56 49.07247 -65.86287 35155 ft 518 kts 60°
2026-04-30 21:57 49.11011 -65.76888 35156 ft 518 kts 60°
2026-04-30 21:57 49.14749 -65.67524 35156 ft 518 kts 60°
2026-04-30 21:58 49.18487 -65.58127 35159 ft 518 kts 60°
2026-04-30 21:58 49.22233 -65.48675 35173 ft 518 kts 60°
2026-04-30 21:59 49.25963 -65.39230 35166 ft 518 kts 60°
2026-04-30 22:00 49.31520 -65.25095 35192 ft 519 kts 60°
2026-04-30 22:00 49.37067 -65.10911 35199 ft 511 kts 60°
2026-04-30 22:01 49.40734 -65.01491 35232 ft 516 kts 60°
2026-04-30 22:01 49.44394 -64.92053 35241 ft 513 kts 60°
2026-04-30 22:02 49.48010 -64.82696 35243 ft 511 kts 60°
2026-04-30 22:02 49.51652 -64.73241 35266 ft 513 kts 60°
2026-04-30 22:03 49.55279 -64.63792 35272 ft 511 kts 60°
2026-04-30 22:03 49.58881 -64.54372 35286 ft 509 kts 60°
2026-04-30 22:04 49.62457 -64.44983 35295 ft 510 kts 60°
2026-04-30 22:05 49.67814 -64.30859 35312 ft 509 kts 60°
2026-04-30 22:05 49.71386 -64.21399 35302 ft 508 kts 60°
2026-04-30 22:06 49.74943 -64.11944 35314 ft 510 kts 60°
2026-04-30 22:06 49.80242 -63.97796 35307 ft 508 kts 60°
2026-04-30 22:07 49.83798 -63.88256 35321 ft 513 kts 61°
2026-04-30 22:07 49.87372 -63.78632 35317 ft 515 kts 61°
2026-04-30 22:08 49.90949 -63.68967 35314 ft 516 kts 61°
2026-04-30 22:08 49.94493 -63.59356 35322 ft 516 kts 61°
2026-04-30 22:09 49.98049 -63.49675 35328 ft 516 kts 62°
2026-04-30 22:09 50.01591 -63.39996 35334 ft 515 kts 62°
2026-04-30 22:10 50.05125 -63.30301 35335 ft 514 kts 62°
2026-04-30 22:10 50.08645 -63.20609 35339 ft 514 kts 62°
2026-04-30 22:11 50.13903 -63.06064 35354 ft 513 kts 62°
2026-04-30 22:12 50.17380 -62.96400 35358 ft 513 kts 62°
2026-04-30 22:12 50.20872 -62.86659 35370 ft 514 kts 62°
2026-04-30 22:13 50.24356 -62.76901 35374 ft 514 kts 63°
2026-04-30 22:13 50.27833 -62.67125 35381 ft 514 kts 63°
2026-04-30 22:14 50.31304 -62.57332 35385 ft 515 kts 63°
2026-04-30 22:14 50.34773 -62.47504 35388 ft 516 kts 63°
2026-04-30 22:15 50.38220 -62.37701 35392 ft 517 kts 63°
2026-04-30 22:15 50.41682 -62.27817 35406 ft 517 kts 63°
2026-04-30 22:16 50.45137 -62.17916 35398 ft 518 kts 63°
2026-04-30 22:17 50.52039 -61.98018 35408 ft 519 kts 64°
2026-04-30 22:17 50.57193 -61.83061 35404 ft 520 kts 64°
2026-04-30 22:18 50.62345 -61.68018 35412 ft 520 kts 64°
2026-04-30 22:19 50.67463 -61.52986 35408 ft 521 kts 64°
2026-04-30 22:20 50.72580 -61.37862 35412 ft 521 kts 64°
2026-04-30 22:20 50.77687 -61.22681 35413 ft 521 kts 64°
2026-04-30 22:21 50.81068 -61.12580 35407 ft 522 kts 64°
2026-04-30 22:21 50.84457 -61.02412 35408 ft 522 kts 64°
2026-04-30 22:22 50.87837 -60.92233 35411 ft 522 kts 65°
2026-04-30 22:22 50.91196 -60.82075 35409 ft 523 kts 65°
2026-04-30 22:23 50.94561 -60.71853 35408 ft 523 kts 65°
2026-04-30 22:23 50.97922 -60.61607 35412 ft 523 kts 65°
2026-04-30 22:24 51.01275 -60.51341 35402 ft 523 kts 65°
2026-04-30 22:24 51.04618 -60.41063 35403 ft 524 kts 65°
2026-04-30 22:25 51.07935 -60.30822 35405 ft 524 kts 65°
2026-04-30 22:25 51.11264 -60.20502 35403 ft 524 kts 65°
2026-04-30 22:26 51.16242 -60.04990 35401 ft 525 kts 65°
2026-04-30 22:27 51.19559 -59.94598 35400 ft 525 kts 65°
2026-04-30 22:27 51.24513 -59.78996 35405 ft 525 kts 65°
2026-04-30 22:28 51.29437 -59.63391 35406 ft 526 kts 65°
2026-04-30 22:29 51.35995 -59.42451 35408 ft 527 kts 65°
2026-04-30 22:31 51.47382 -59.05658 35411 ft 528 kts 66°
2026-04-30 22:32 51.55470 -58.79186 35416 ft 528 kts 67°
2026-04-30 22:33 51.63486 -58.52658 35418 ft 528 kts 67°
2026-04-30 22:35 51.71460 -58.25975 35419 ft 528 kts 68°
2026-04-30 22:36 51.79371 -57.99208 35427 ft 528 kts 68°
2026-04-30 22:37 51.85639 -57.77783 35426 ft 528 kts 68°
2026-04-30 22:38 51.91363 -57.58048 35421 ft 529 kts 68°
2026-04-30 22:39 51.96024 -57.41857 35423 ft 528 kts 69°
2026-04-30 22:40 52.05269 -57.09408 35426 ft 528 kts 69°
2026-04-30 22:41 52.12896 -56.82296 35422 ft 528 kts 69°
2026-04-30 22:43 52.21964 -56.49647 35421 ft 528 kts 69°
2026-04-30 22:44 52.27980 -56.27730 35419 ft 528 kts 69°
2026-04-30 22:45 52.36894 -55.94866 35424 ft 528 kts 69°
2026-04-30 22:47 52.46445 -55.62244 35428 ft 529 kts 66°
2026-04-30 22:48 52.53070 -55.40778 35449 ft 528 kts 66°
2026-04-30 22:49 52.62883 -55.08296 35431 ft 529 kts 66°
2026-04-30 22:50 52.69362 -54.86628 35285 ft 526 kts 66°
2026-04-30 22:51 52.72581 -54.75787 35284 ft 525 kts 66°
2026-04-30 22:52 52.77384 -54.59518 35291 ft 525 kts 66°
2026-04-30 22:53 52.83743 -54.37805 35292 ft 526 kts 66°
2026-04-30 22:53 52.88512 -54.21393 35302 ft 527 kts 66°
2026-04-30 22:55 52.96391 -53.94021 35305 ft 527 kts 66°
2026-04-30 22:56 53.02642 -53.72078 35311 ft 527 kts 66°
2026-04-30 22:57 53.10413 -53.44507 35319 ft 526 kts 66°
2026-04-30 22:58 53.16580 -53.22394 35321 ft 526 kts 66°
2026-04-30 22:59 53.25724 -52.89210 35330 ft 525 kts 66°